JCSAT-3A

Last updated on Jan. 27, 2020, 4:38 a.m. UTC

1 29272U 06033A   20026.80208559 -.00000351  00000-0  00000+0 0  9990
2 29272   0.0154 100.3128 0002259 218.3348 223.6573  1.00268225 49362
UTC
Height (km)
Latitude
Longitude
Inclination
Orbital Period
UTC large
Height (km)
Speed (km/s)
/
Latitude / Longitude
Inclination (degrees)
Orbital Period (minutes)
Azimuth
Elevation
Range (km)
Doppler Factor
iOS Compass Heading
iOS Angle

Next 30 passes for location: Hong Kong

Rise time Rise Azimuth (degrees) Set time Set Azimuth (degrees) Duration Max altitude (degrees)

No matching passes for this satellites